Погода в Желтинском

Россия / Челябинская область     53°33′40″N   59°13′18″E
темп.,
°C
ветер,
м/с
пор.,
м/с
влажн.,
%
обл.,
%
осадки,
мм/ч
давл.,
гПа
погр.,
м
25 февраля, чт
чт2523:00−22ссз3997100 0.3 1021344
02:00−25ссз3484100 0.0 102359
05:00−26сз228492 0.0 102620
08:00−28сз22820 0.0 102920
11:00−24зсз23810 0.0 103097
14:00−19з22730 0.0 1030198
17:00−20ююз33860 0.0 103049
20:00−24ю33840 0.0 103121
26 февраля, пт
пт2623:00−25ююз22930 0.0 103220
02:00−27юз11960 0.0 103120
05:00−28зюз11960 0.0 103119
08:00−29юз11943 0.0 103019
11:00−23ю22806 0.0 1029117
14:00−20ю348244 0.0 1027264
17:00−20ю369655 0.0 1026244
20:00−24ю3410093 0.0 102673
27 февраля, сб
сб2723:00−23ю3510095 0.1 102596
02:00−22ю3899100 0.1 1022242
05:00−22ю3999100 0.1 1020286
08:00−19ююв51097100 0.3 1016421
11:00−15ююв61195100 1.3 1012552
14:00−11ю61194100 2.7 1008740
17:00−8ю5994100 4.2 1005616
20:00−5ююв1298100 0.2 99825
28 февраля, вс
вс2823:00−8зюз229797 0.2 99927
02:00−5ююз3893100 0.0 998189
05:00−4ююз51093100 0.1 998335
08:00−5ююз4894100 0.1 998255
11:00−3юз5891100 0.2 998484
14:00−1ююз568899 0.0 1000623
17:00−3юз4791100 0.2 1001345
20:00−7св2496100 0.2 1004113
1 марта, пн
пн123:00−13ссв5994100 0.4 1008239
02:00−16ссв369696 0.2 1010137
05:00−19ссв239796 0.3 101335
08:00−19ссв229793 0.1 101523
11:00−16св129291 0.1 1016197
14:00−13ю118996 0.0 1017302
17:00−13ю239498 0.2 1018251
20:00−15ююв229798 0.3 102025